User: anonymous   Login
Location: Columbia
(38.9520°N, 92.3340°W)
Time: 03:17:27
(UTC-05:00)
Language:

CZ-2C R/B - Orbit

View from above orbital plane
View from above orbital plane
View from above satellite
View from above satellite

Ground track
Ground track

The orbit data is extracted from the following two-line orbital elements,

1 28480U 04046B   16122.89385126  .00000033  00000-0  28085-4 0  9993
2 28480  98.1762 239.8688 0141999 358.9695 106.4572 14.25587116595632
Epoch (UTC): 01 May 2016 21:27:08
Eccentricity: 0.0141999
inclination: 98.1762°
perigee height: 704 km
apogee height: 908 km
right ascension of ascending node: 239.8688°
argument of perigee: 358.9695°
revolutions per day: 14.25587116
mean anomaly at epoch: 106.4572°
orbit number at epoch: 59563

The dashed part of the orbit path shows where the satellite is in the earth's shadow,  

DLR